Winchester, TN

4:35 AM CDT on July 27, 2017 (GMT -0500)
Winchester Municipal

Weather History for KBGF - November, 2014

Change the Weather History Date:

Friday, November 7, 2014

  Actual Average (KTHA) Record (KTHA)
Temperature  
Mean Temperature 43 °F -  
Max Temperature 53 °F 60 °F 73 °F (2016)
Min Temperature 33 °F 38 °F 32 °F (2014)
Degree Days  
Heating Degree Days 22    
Moisture  
Dew Point 34 °F    
Average Humidity 72    
Maximum Humidity 100    
Minimum Humidity 47    
Precipitation  
Precipitation 0.00 in - - ()
Sea Level Pressure  
Sea Level Pressure 30.13 in    
Wind  
Wind Speed 7 mph (North)    
Max Wind Speed 17 mph    
Max Gust Speed -    
Visibility 10 miles    
Events      
Averages and records for this station are not official NWS values.
T = Trace of Precipitation, MM = Missing Value Source: NWS Daily Summary

Daily Weather History Graph

Daily Weather History Graph

Search for Another Location

Airport or City:

Trip Planner

Search our weather history database for the weather conditions in past years. The results will help you decide how hot, cold, wet, or windy it might be!

Date:

Astronomy

Nov. 07, 2014 Rise Set
Actual Time 7:11 AM EST 5:44 PM EST
Civil Twilight 6:44 AM EST 6:10 PM EST
Nautical Twilight 6:14 AM EST 6:40 PM EST
Astronomical Twilight 5:44 AM EST 7:10 PM EST
Moon 6:37 PM EST (11/7) 7:46 AM EST (11/7)
Length of Visible Light 11h 26m
Length of Day
10h 32m
Full, 99% of the Moon is Illuminated
Nov 7
Full
Nov 14
Last Quarter
Nov 22
New
Nov 29
First Quarter
Dec 6
Full

Hourly Weather History & Observations

Time (EST) Temp. Windchill Dew Point Humidity Pressure Visibility Wind Dir Wind Speed Gust Speed Precip Events Conditions
12:15 AM 42.8 °F 37.5 °F 33.8 °F 70% 30.18 in 10.0 mi North 9.2 mph - N/A   Overcast
12:35 AM 42.8 °F 37.5 °F 33.8 °F 70% 30.18 in 10.0 mi NNW 9.2 mph - N/A   Overcast
12:55 AM 42.8 °F 38.6 °F 33.8 °F 70% 30.18 in 10.0 mi Variable 6.9 mph - N/A   Overcast
1:55 AM 42.8 °F 37.5 °F 33.8 °F 70% 30.17 in 10.0 mi North 9.2 mph - N/A   Overcast
2:15 AM 42.8 °F 34.8 °F 33.8 °F 70% 30.16 in 10.0 mi North 17.3 mph - N/A   Overcast
2:35 AM 42.8 °F 36.6 °F 33.8 °F 70% 30.15 in 10.0 mi North 11.5 mph - N/A   Overcast
2:55 AM 42.8 °F 35.4 °F 33.8 °F 70% 30.15 in 10.0 mi North 15.0 mph - N/A   Overcast
3:15 AM 42.8 °F 38.0 °F 33.8 °F 70% 30.15 in 10.0 mi North 8.1 mph - N/A   Overcast
3:35 AM 41.0 °F 34.3 °F 33.8 °F 76% 30.14 in 10.0 mi North 11.5 mph - N/A   Overcast
3:55 AM 41.0 °F 33.5 °F 33.8 °F 76% 30.14 in 10.0 mi North 13.8 mph - N/A   Overcast
4:15 AM 41.0 °F 34.3 °F 33.8 °F 76% 30.15 in 10.0 mi North 11.5 mph - N/A   Overcast
4:35 AM 39.2 °F 33.6 °F 33.8 °F 81% 30.15 in 10.0 mi NNW 8.1 mph - N/A   Overcast
4:55 AM 39.2 °F 32.5 °F 33.8 °F 81% 30.16 in 10.0 mi North 10.4 mph - N/A   Overcast
5:15 AM 39.2 °F 32.0 °F 33.8 °F 81% 30.15 in 10.0 mi North 11.5 mph - N/A   Overcast
5:35 AM 39.2 °F 32.5 °F 33.8 °F 81% 30.16 in 10.0 mi North 10.4 mph - N/A   Overcast
5:55 AM 39.2 °F 35.0 °F 33.8 °F 81% 30.16 in 10.0 mi North 5.8 mph - N/A   Overcast
6:15 AM 39.2 °F 32.0 °F 32.0 °F 75% 30.17 in 10.0 mi North 11.5 mph - N/A   Overcast
6:35 AM 39.2 °F 33.0 °F 30.2 °F 70% 30.17 in 10.0 mi North 9.2 mph - N/A   Overcast
6:55 AM 37.4 °F 29.8 °F 30.2 °F 75% 30.16 in 10.0 mi NNE 11.5 mph - N/A   Mostly Cloudy
7:15 AM 37.4 °F 33.8 °F 30.2 °F 75% 30.17 in 10.0 mi North 4.6 mph - N/A   Clear
7:35 AM 37.4 °F 34.9 °F 30.2 °F 75% 30.18 in 10.0 mi North 3.5 mph - N/A   Mostly Cloudy
7:55 AM 37.4 °F 33.8 °F 30.2 °F 75% 30.19 in 10.0 mi North 4.6 mph - N/A   Overcast
8:15 AM 39.2 °F 33.0 °F 30.2 °F 70% 30.19 in 10.0 mi North 9.2 mph - N/A   Overcast
8:35 AM 39.2 °F 34.2 °F 30.2 °F 70% 30.19 in 10.0 mi NNE 6.9 mph - N/A   Overcast
8:55 AM 39.2 °F 33.0 °F 32.0 °F 75% 30.20 in 10.0 mi North 9.2 mph - N/A   Overcast
9:15 AM 39.2 °F 32.5 °F 32.0 °F 75% 30.19 in 10.0 mi NNE 10.4 mph - N/A   Overcast
9:35 AM 41.0 °F 34.3 °F 32.0 °F 70% 30.19 in 10.0 mi NNE 11.5 mph - N/A   Overcast
9:55 AM 42.8 °F 38.0 °F 33.8 °F 70% 30.19 in 10.0 mi NE 8.1 mph - N/A   Overcast
10:15 AM 42.8 °F 38.0 °F 33.8 °F 70% 30.19 in 10.0 mi ENE 8.1 mph - N/A   Scattered Clouds
10:35 AM 44.6 °F 40.7 °F 33.8 °F 66% 30.19 in 10.0 mi NNE 6.9 mph - N/A   Partly Cloudy
10:55 AM 44.6 °F 43.1 °F 33.8 °F 66% 30.19 in 10.0 mi Variable 3.5 mph - N/A   Partly Cloudy
11:15 AM 44.6 °F 42.2 °F 33.8 °F 66% 30.18 in 10.0 mi Variable 4.6 mph - N/A   Clear
11:35 AM 46.4 °F 43.5 °F 33.8 °F 62% 30.19 in 10.0 mi North 5.8 mph - N/A   Clear
11:55 AM 46.4 °F 45.2 °F 33.8 °F 62% 30.18 in 10.0 mi Variable 3.5 mph - N/A   Clear
12:15 PM 48.2 °F - 33.8 °F 58% 30.17 in 10.0 mi Calm Calm - N/A   Clear
12:35 PM 48.2 °F - 33.8 °F 58% 30.16 in 10.0 mi Variable 5.8 mph - N/A   Clear
12:55 PM 48.2 °F - 33.8 °F 58% 30.15 in 10.0 mi NNE 3.5 mph - N/A   Clear
1:15 PM 48.2 °F - 33.8 °F 58% 30.14 in 10.0 mi North 4.6 mph - N/A   Clear
1:35 PM 50.0 °F - 33.8 °F 54% 30.14 in 10.0 mi NNE 5.8 mph - N/A   Clear
1:55 PM 50.0 °F - 33.8 °F 54% 30.12 in 10.0 mi Variable 6.9 mph - N/A   Clear
2:15 PM 51.8 °F - 35.6 °F 54% 30.11 in 10.0 mi NNE 6.9 mph - N/A   Clear
2:35 PM 51.8 °F - 35.6 °F 54% 30.10 in - NNE 6.9 mph - N/A   Unknown
2:55 PM 51.8 °F - 33.8 °F 50% 30.09 in 10.0 mi NNE 5.8 mph - N/A   Clear
3:15 PM 53.6 °F - 35.6 °F 51% 30.08 in 10.0 mi North 5.8 mph - N/A   Clear
3:35 PM 53.6 °F - 35.6 °F 51% 30.08 in 10.0 mi Calm Calm - N/A   Clear
3:55 PM 53.6 °F - 35.6 °F 51% 30.08 in 10.0 mi North 8.1 mph - N/A   Clear
4:15 PM 53.6 °F - 33.8 °F 47% 30.08 in 10.0 mi Variable 4.6 mph - N/A   Clear
4:35 PM 51.8 °F - 35.6 °F 54% 30.08 in 10.0 mi North 4.6 mph - N/A   Clear
4:55 PM 51.8 °F - 35.6 °F 54% 30.08 in 10.0 mi North 5.8 mph - N/A   Clear
5:15 PM 51.8 °F - 33.8 °F 50% 30.07 in 10.0 mi NNW 4.6 mph - N/A   Clear
5:35 PM 48.2 °F - 33.8 °F 58% 30.07 in 10.0 mi North 3.5 mph - N/A   Clear
5:55 PM 48.2 °F - 33.8 °F 58% 30.07 in 10.0 mi North 3.5 mph - N/A   Clear
6:15 PM 48.2 °F - 33.8 °F 58% 30.07 in 10.0 mi NW 3.5 mph - N/A   Clear
6:35 PM 44.6 °F - 35.6 °F 71% 30.07 in 10.0 mi Calm Calm - N/A   Clear
6:55 PM 39.2 °F - 35.6 °F 87% 30.07 in 10.0 mi Calm Calm - N/A   Clear
7:15 PM 41.0 °F - 35.6 °F 81% 30.07 in 10.0 mi Calm Calm - N/A   Clear
7:35 PM 39.2 °F - 35.6 °F 87% 30.07 in 4.0 mi Calm Calm - N/A   Clear
7:55 PM 37.4 °F - 35.6 °F 93% 30.06 in 8.0 mi Calm Calm - N/A   Clear
8:15 PM 37.4 °F - 33.8 °F 87% 30.07 in 10.0 mi Calm Calm - N/A   Clear
8:35 PM 37.4 °F - 33.8 °F 87% 30.07 in 8.0 mi Calm Calm - N/A   Clear
8:55 PM 37.4 °F - 33.8 °F 87% 30.07 in 6.0 mi Calm Calm - N/A   Clear
9:15 PM 35.6 °F - 35.6 °F 100% 30.07 in 10.0 mi Calm Calm - N/A   Clear
9:35 PM 37.4 °F - 35.6 °F 93% 30.07 in 6.0 mi Calm Calm - N/A   Clear
9:55 PM 35.6 °F - 33.8 °F 93% 30.07 in 10.0 mi Calm Calm - N/A   Clear
10:15 PM 33.8 °F - 33.8 °F 100% 30.07 in 10.0 mi Calm Calm - N/A   Clear
10:35 PM 35.6 °F - 33.8 °F 93% 30.07 in 10.0 mi Calm Calm - N/A   Clear
10:55 PM 33.8 °F - 32.0 °F 93% 30.07 in 10.0 mi Calm Calm - N/A   Clear
11:15 PM 33.8 °F - 33.8 °F 100% 30.06 in 10.0 mi Calm Calm - N/A   Clear
11:35 PM 33.8 °F - 33.8 °F 100% 30.06 in 10.0 mi Calm Calm - N/A   Clear
11:55 PM 35.6 °F - 33.8 °F 93% 30.07 in 10.0 mi Calm Calm - N/A   Clear